Year,Month,Day,Hour,Minute,Value (Times are PST for temperature in C)
2019,02,18,00,00,-0.50
2019,02,18,00,01,-0.50
2019,02,18,00,02,-0.50
2019,02,18,00,03,-0.50
2019,02,18,00,04,-0.50
2019,02,18,00,05,-0.50
2019,02,18,00,06,-0.50
2019,02,18,00,07,-0.50
2019,02,18,00,08,-0.50
2019,02,18,00,09,-0.50
2019,02,18,00,10,-0.50
2019,02,18,00,11,-0.50
2019,02,18,00,12,-0.50
2019,02,18,00,13,-0.50
2019,02,18,00,14,-0.50
2019,02,18,00,15,-0.50
2019,02,18,00,16,-0.50
2019,02,18,00,17,-0.50
2019,02,18,00,18,-0.50
2019,02,18,00,19,-0.50
2019,02,18,00,20,-0.50
2019,02,18,00,21,-0.50
2019,02,18,00,22,-0.50
2019,02,18,00,23,-0.50
2019,02,18,00,24,-0.50
2019,02,18,00,25,-0.50
2019,02,18,00,26,-0.50
2019,02,18,00,27,-0.50
2019,02,18,00,28,-0.60
2019,02,18,00,29,-0.60
2019,02,18,00,30,-0.60
2019,02,18,00,31,-0.60
2019,02,18,00,32,-0.60
2019,02,18,00,33,-0.50
2019,02,18,00,34,-0.60
2019,02,18,00,35,-0.60
2019,02,18,00,36,-0.60
2019,02,18,00,37,-0.60
2019,02,18,00,38,-0.60
2019,02,18,00,39,-0.50
2019,02,18,00,40,-0.60
2019,02,18,00,41,-0.50
2019,02,18,00,42,-0.60
2019,02,18,00,43,-0.50
2019,02,18,00,44,-0.60
2019,02,18,00,45,-0.60
2019,02,18,00,46,-0.50
2019,02,18,00,47,-0.60
2019,02,18,00,48,-0.60
2019,02,18,00,49,-0.60
2019,02,18,00,50,-0.60
2019,02,18,00,51,-0.60
2019,02,18,00,52,-0.60
2019,02,18,00,53,-0.60
2019,02,18,00,54,-0.60
2019,02,18,00,55,-0.60
2019,02,18,00,56,-0.60
2019,02,18,00,57,-0.60
2019,02,18,00,58,-0.60
2019,02,18,00,59,-0.60
2019,02,18,01,00,-0.60
2019,02,18,01,01,-0.60
2019,02,18,01,02,-0.60
2019,02,18,01,03,-0.60
2019,02,18,01,04,-0.60
2019,02,18,01,05,-0.60
2019,02,18,01,06,-0.60
2019,02,18,01,07,-0.60
2019,02,18,01,08,-0.60
2019,02,18,01,09,-0.60
2019,02,18,01,10,-0.60
2019,02,18,01,11,-0.60
2019,02,18,01,12,-0.60
2019,02,18,01,13,-0.60
2019,02,18,01,14,-0.60
2019,02,18,01,15,-0.60
2019,02,18,01,16,-0.60
2019,02,18,01,17,-0.60
2019,02,18,01,18,-0.60
2019,02,18,01,19,-0.60
2019,02,18,01,20,-0.60
2019,02,18,01,21,-0.60
2019,02,18,01,22,-0.60
2019,02,18,01,23,-0.60
2019,02,18,01,24,-0.60
2019,02,18,01,25,-0.60
2019,02,18,01,26,-0.60
2019,02,18,01,27,-0.60
2019,02,18,01,28,-0.60
2019,02,18,01,29,-0.60
2019,02,18,01,30,-0.60
2019,02,18,01,31,-0.60
2019,02,18,01,32,-0.60
2019,02,18,01,33,-0.60
2019,02,18,01,34,-0.60
2019,02,18,01,35,-0.60
2019,02,18,01,36,-0.60
2019,02,18,01,37,-0.60
2019,02,18,01,38,-0.60
2019,02,18,01,39,-0.60
2019,02,18,01,40,-0.60
2019,02,18,01,41,-0.60
2019,02,18,01,42,-0.60
2019,02,18,01,43,-0.60
2019,02,18,01,44,-0.60
2019,02,18,01,45,-0.60
2019,02,18,01,46,-0.60
2019,02,18,01,47,-0.60
2019,02,18,01,48,-0.60
2019,02,18,01,49,-0.60
2019,02,18,01,50,-0.60
2019,02,18,01,51,-0.60
2019,02,18,01,52,-0.60
2019,02,18,01,53,-0.60
2019,02,18,01,54,-0.60
2019,02,18,01,55,-0.60
2019,02,18,01,56,-0.60
2019,02,18,01,57,-0.60
2019,02,18,01,58,-0.60
2019,02,18,01,59,-0.60
2019,02,18,02,00,-0.60
2019,02,18,02,01,-0.60
2019,02,18,02,02,-0.60
2019,02,18,02,03,-0.60
2019,02,18,02,04,-0.60
2019,02,18,02,05,-0.60
2019,02,18,02,06,-0.60
2019,02,18,02,07,-0.60
2019,02,18,02,08,-0.60
2019,02,18,02,09,-0.60
2019,02,18,02,10,-0.60
2019,02,18,02,11,-0.60
2019,02,18,02,12,-0.60
2019,02,18,02,13,-0.60
2019,02,18,02,14,-0.70
2019,02,18,02,15,-0.70
2019,02,18,02,16,-0.70
2019,02,18,02,17,-0.70
2019,02,18,02,18,-0.70
2019,02,18,02,19,-0.70
2019,02,18,02,20,-0.70
2019,02,18,02,21,-0.70
2019,02,18,02,22,-0.70
2019,02,18,02,23,-0.70
2019,02,18,02,24,-0.70
2019,02,18,02,25,-0.70
2019,02,18,02,26,-0.70
2019,02,18,02,27,-0.70
2019,02,18,02,28,-0.70
2019,02,18,02,29,-0.70
2019,02,18,02,30,-0.70
2019,02,18,02,31,-0.70
2019,02,18,02,32,-0.70
2019,02,18,02,33,-0.70
2019,02,18,02,34,-0.70
2019,02,18,02,35,-0.70
2019,02,18,02,36,-0.70
2019,02,18,02,37,-0.70
2019,02,18,02,38,-0.70
2019,02,18,02,39,-0.70
2019,02,18,02,40,-0.70
2019,02,18,02,41,-0.70
2019,02,18,02,42,-0.70
2019,02,18,02,43,-0.70
2019,02,18,02,44,-0.70
2019,02,18,02,45,-0.70
2019,02,18,02,46,-0.70
2019,02,18,02,47,-0.70
2019,02,18,02,48,-0.70
2019,02,18,02,49,-0.70
2019,02,18,02,50,-0.70
2019,02,18,02,51,-0.70
2019,02,18,02,52,-0.70
2019,02,18,02,53,-0.70
2019,02,18,02,54,-0.70
2019,02,18,02,55,-0.70
2019,02,18,02,56,-0.70
2019,02,18,02,57,-0.70
2019,02,18,02,58,-0.70
2019,02,18,02,59,-0.70
2019,02,18,03,00,-0.70
2019,02,18,03,01,-0.70
2019,02,18,03,02,-0.70
2019,02,18,03,03,-0.70
2019,02,18,03,04,-0.70
2019,02,18,03,05,-0.70
2019,02,18,03,06,-0.70
2019,02,18,03,07,-0.70
2019,02,18,03,08,-0.60
2019,02,18,03,09,-0.60
2019,02,18,03,10,-0.60
2019,02,18,03,11,-0.60
2019,02,18,03,12,-0.60
2019,02,18,03,13,-0.60
2019,02,18,03,14,-0.60
2019,02,18,03,15,-0.60
2019,02,18,03,16,-0.50
2019,02,18,03,17,-0.50
2019,02,18,03,18,-0.50
2019,02,18,03,19,-0.50
2019,02,18,03,20,-0.40
2019,02,18,03,21,-0.40
2019,02,18,03,22,-0.40
2019,02,18,03,23,-0.40
2019,02,18,03,24,-0.40
2019,02,18,03,25,-0.40
2019,02,18,03,26,-0.40
2019,02,18,03,27,-0.30
2019,02,18,03,28,-0.30
2019,02,18,03,29,-0.30
2019,02,18,03,30,-0.30
2019,02,18,03,31,-0.30
2019,02,18,03,32,-0.30
2019,02,18,03,33,-0.30
2019,02,18,03,34,-0.20
2019,02,18,03,35,-0.20
2019,02,18,03,36,-0.20
2019,02,18,03,37,-0.20
2019,02,18,03,38,-0.20
2019,02,18,03,39,-0.20
2019,02,18,03,40,-0.10
2019,02,18,03,41,-0.10
2019,02,18,03,42,-0.10
2019,02,18,03,43,-0.10
2019,02,18,03,44,-0.10
2019,02,18,03,45,-0.10
2019,02,18,03,46,-0.10
2019,02,18,03,47,0.00
2019,02,18,03,48,0.00
2019,02,18,03,49,0.00
2019,02,18,03,50,0.00
2019,02,18,03,51,0.10
2019,02,18,03,52,0.10
2019,02,18,03,53,0.10
2019,02,18,03,54,0.10
2019,02,18,03,55,0.10
2019,02,18,03,56,0.10
2019,02,18,03,57,0.10
2019,02,18,03,58,0.10
2019,02,18,03,59,0.10
2019,02,18,04,00,0.10
2019,02,18,04,01,0.20
2019,02,18,04,02,0.20
2019,02,18,04,03,0.20
2019,02,18,04,04,0.20
2019,02,18,04,05,0.20
2019,02,18,04,06,0.20
2019,02,18,04,07,0.20
2019,02,18,04,08,0.20
2019,02,18,04,09,0.20
2019,02,18,04,10,0.20
2019,02,18,04,11,0.20
2019,02,18,04,12,0.20
2019,02,18,04,13,0.20
2019,02,18,04,14,0.20
2019,02,18,04,15,0.20
2019,02,18,04,16,0.20
2019,02,18,04,17,0.20
2019,02,18,04,18,0.20
2019,02,18,04,19,0.20
2019,02,18,04,20,0.10
2019,02,18,04,21,0.10
2019,02,18,04,22,0.10
2019,02,18,04,23,0.10
2019,02,18,04,24,0.10
2019,02,18,04,25,0.10
2019,02,18,04,26,0.10
2019,02,18,04,27,0.10
2019,02,18,04,28,0.10
2019,02,18,04,29,0.10
2019,02,18,04,30,0.00
2019,02,18,04,31,0.00
2019,02,18,04,32,0.00
2019,02,18,04,33,0.00
2019,02,18,04,34,0.00
2019,02,18,04,35,-0.10
2019,02,18,04,36,-0.10
2019,02,18,04,37,-0.10
2019,02,18,04,38,-0.10
2019,02,18,04,39,-0.20
2019,02,18,04,40,-0.20
2019,02,18,04,41,-0.20
2019,02,18,04,42,-0.20
2019,02,18,04,43,-0.20
2019,02,18,04,44,-0.20
2019,02,18,04,45,-0.20
2019,02,18,04,46,-0.30
2019,02,18,04,47,-0.30
2019,02,18,04,48,-0.30
2019,02,18,04,49,-0.30
2019,02,18,04,50,-0.30
2019,02,18,04,51,-0.30
2019,02,18,04,52,-0.30
2019,02,18,04,53,-0.30
2019,02,18,04,54,-0.30
2019,02,18,04,55,-0.30
2019,02,18,04,56,-0.40
2019,02,18,04,57,-0.40
2019,02,18,04,58,-0.40
2019,02,18,04,59,-0.40
2019,02,18,05,00,-0.40
2019,02,18,05,01,-0.40
2019,02,18,05,02,-0.40
2019,02,18,05,03,-0.40
2019,02,18,05,04,-0.40
2019,02,18,05,05,-0.50
2019,02,18,05,06,-0.50
2019,02,18,05,07,-0.50
2019,02,18,05,08,-0.50
2019,02,18,05,09,-0.50
2019,02,18,05,10,-0.50
2019,02,18,05,11,-0.50
2019,02,18,05,12,-0.60
2019,02,18,05,13,-0.60
2019,02,18,05,14,-0.60
2019,02,18,05,15,-0.60
2019,02,18,05,16,-0.60
2019,02,18,05,17,-0.60
2019,02,18,05,18,-0.60
2019,02,18,05,19,-0.60
2019,02,18,05,20,-0.60
2019,02,18,05,21,-0.60
2019,02,18,05,22,-0.60
2019,02,18,05,23,-0.60
2019,02,18,05,24,-0.60
2019,02,18,05,25,-0.60
2019,02,18,05,26,-0.60
2019,02,18,05,27,-0.60
2019,02,18,05,28,-0.60
2019,02,18,05,29,-0.60
2019,02,18,05,30,-0.60
2019,02,18,05,31,-0.60
2019,02,18,05,32,-0.60
2019,02,18,05,33,-0.60
2019,02,18,05,34,-0.60
2019,02,18,05,35,-0.60
2019,02,18,05,36,-0.60
2019,02,18,05,37,-0.60
2019,02,18,05,38,-0.60
2019,02,18,05,39,-0.60
2019,02,18,05,40,-0.60
2019,02,18,05,41,-0.60
2019,02,18,05,42,-0.60
2019,02,18,05,43,-0.60
2019,02,18,05,44,-0.60
2019,02,18,05,45,-0.60
2019,02,18,05,46,-0.60
2019,02,18,05,47,-0.60
2019,02,18,05,48,-0.60
2019,02,18,05,49,-0.60
2019,02,18,05,50,-0.60
2019,02,18,05,51,-0.60
2019,02,18,05,52,-0.50
2019,02,18,05,53,-0.50
2019,02,18,05,54,-0.50
2019,02,18,05,55,-0.50
2019,02,18,05,56,-0.50
2019,02,18,05,57,-0.50
2019,02,18,05,58,-0.50
2019,02,18,05,59,-0.40
2019,02,18,06,00,-0.40
2019,02,18,06,01,-0.40
2019,02,18,06,02,-0.40
2019,02,18,06,03,-0.40
2019,02,18,06,04,-0.40
2019,02,18,06,05,-0.40
2019,02,18,06,06,-0.40
2019,02,18,06,07,-0.40
2019,02,18,06,08,-0.40
2019,02,18,06,09,-0.30
2019,02,18,06,10,-0.30
2019,02,18,06,11,-0.30
2019,02,18,06,12,-0.30
2019,02,18,06,13,-0.30
2019,02,18,06,14,-0.30
2019,02,18,06,15,-0.30
2019,02,18,06,16,-0.30
2019,02,18,06,17,-0.30
2019,02,18,06,18,-0.30
2019,02,18,06,19,-0.30
2019,02,18,06,20,-0.30
2019,02,18,06,21,-0.30
2019,02,18,06,22,-0.30
2019,02,18,06,23,-0.30
2019,02,18,06,24,-0.20
2019,02,18,06,25,-0.20
2019,02,18,06,26,-0.20
2019,02,18,06,27,-0.20
2019,02,18,06,28,-0.20
2019,02,18,06,29,-0.20
2019,02,18,06,30,-0.20
2019,02,18,06,31,-0.20
2019,02,18,06,32,-0.20
2019,02,18,06,33,-0.20
2019,02,18,06,34,-0.20
2019,02,18,06,35,-0.20
2019,02,18,06,36,-0.20
2019,02,18,06,37,-0.20
2019,02,18,06,38,-0.20
2019,02,18,06,39,-0.20
2019,02,18,06,40,-0.20
2019,02,18,06,41,-0.20
2019,02,18,06,42,-0.20
2019,02,18,06,43,-0.10
2019,02,18,06,44,-0.10
2019,02,18,06,45,-0.10
2019,02,18,06,46,-0.10
2019,02,18,06,47,-0.10
2019,02,18,06,48,-0.10
2019,02,18,06,49,-0.10
2019,02,18,06,50,-0.10
2019,02,18,06,51,-0.10
2019,02,18,06,52,-0.10
2019,02,18,06,53,-0.10
2019,02,18,06,54,-0.10
2019,02,18,06,55,-0.10
2019,02,18,06,56,-0.10
2019,02,18,06,57,-0.10
2019,02,18,06,58,-0.10
2019,02,18,06,59,-0.10
2019,02,18,07,00,-0.10
2019,02,18,07,01,-0.10
2019,02,18,07,02,-0.10
2019,02,18,07,03,-0.10
2019,02,18,07,04,0.00
2019,02,18,07,05,0.00
2019,02,18,07,06,-0.10
2019,02,18,07,07,0.00
2019,02,18,07,08,0.00
2019,02,18,07,09,0.00
2019,02,18,07,10,0.00
2019,02,18,07,11,0.00
2019,02,18,07,12,0.00
2019,02,18,07,13,0.00
2019,02,18,07,14,0.10
2019,02,18,07,15,0.10
2019,02,18,07,16,0.10
2019,02,18,07,17,0.10
2019,02,18,07,18,0.10
2019,02,18,07,19,0.10
2019,02,18,07,20,0.10
2019,02,18,07,21,0.10
2019,02,18,07,22,0.10
2019,02,18,07,23,0.10
2019,02,18,07,24,0.10
2019,02,18,07,25,0.10
2019,02,18,07,26,0.10
2019,02,18,07,27,0.10
2019,02,18,07,28,0.10
2019,02,18,07,29,0.10
2019,02,18,07,30,0.10
2019,02,18,07,31,0.10
2019,02,18,07,32,0.10
2019,02,18,07,33,0.10
2019,02,18,07,34,0.10
2019,02,18,07,35,0.10
2019,02,18,07,36,0.10
2019,02,18,07,37,0.10
2019,02,18,07,38,0.10
2019,02,18,07,39,0.10
2019,02,18,07,40,0.10
2019,02,18,07,41,0.10
2019,02,18,07,42,0.10
2019,02,18,07,43,0.10
2019,02,18,07,44,0.10
2019,02,18,07,45,0.10
2019,02,18,07,46,0.10
2019,02,18,07,47,0.10
2019,02,18,07,48,0.10
2019,02,18,07,49,0.10
2019,02,18,07,50,0.10
2019,02,18,07,51,0.10
2019,02,18,07,52,0.10
2019,02,18,07,53,0.10
2019,02,18,07,54,0.10
2019,02,18,07,55,0.10
2019,02,18,07,56,0.10
2019,02,18,07,57,0.10
2019,02,18,07,58,0.10
2019,02,18,07,59,0.10
2019,02,18,08,00,0.10
2019,02,18,08,01,0.10
2019,02,18,08,02,0.10
2019,02,18,08,03,0.10
2019,02,18,08,04,0.10
2019,02,18,08,05,0.10
2019,02,18,08,06,0.10
2019,02,18,08,07,0.10
2019,02,18,08,08,0.10
2019,02,18,08,09,0.20
2019,02,18,08,10,0.20
2019,02,18,08,11,0.20
2019,02,18,08,12,0.20
2019,02,18,08,13,0.20
2019,02,18,08,14,0.20
2019,02,18,08,15,0.20
2019,02,18,08,16,0.20
2019,02,18,08,17,0.20
2019,02,18,08,18,0.20
2019,02,18,08,19,0.20
2019,02,18,08,20,0.20
2019,02,18,08,21,0.20
2019,02,18,08,22,0.20
2019,02,18,08,23,0.30
2019,02,18,08,24,0.30
2019,02,18,08,25,0.30
2019,02,18,08,26,0.30
2019,02,18,08,27,0.30
2019,02,18,08,28,0.30
2019,02,18,08,29,0.30
2019,02,18,08,30,0.30
2019,02,18,08,31,0.30
2019,02,18,08,32,0.30
2019,02,18,08,33,0.30
2019,02,18,08,34,0.30
2019,02,18,08,35,0.30
2019,02,18,08,36,0.30
2019,02,18,08,37,0.30
2019,02,18,08,38,0.30
2019,02,18,08,39,0.30
2019,02,18,08,40,0.30
2019,02,18,08,41,0.30
2019,02,18,08,42,0.30
2019,02,18,08,43,0.30
2019,02,18,08,44,0.40
2019,02,18,08,45,0.40
2019,02,18,08,46,0.40
2019,02,18,08,47,0.40
2019,02,18,08,48,0.40
2019,02,18,08,49,0.40
2019,02,18,08,50,0.40
2019,02,18,08,51,0.40
2019,02,18,08,52,0.40
2019,02,18,08,53,0.40
2019,02,18,08,54,0.50
2019,02,18,08,55,0.50
2019,02,18,08,56,0.50
2019,02,18,08,57,0.50
2019,02,18,08,58,0.60
2019,02,18,08,59,0.60
2019,02,18,09,00,0.60
2019,02,18,09,01,0.60
2019,02,18,09,02,0.70
2019,02,18,09,03,0.70
2019,02,18,09,04,0.70
2019,02,18,09,05,0.70
2019,02,18,09,06,0.70
2019,02,18,09,07,0.80
2019,02,18,09,08,0.80
2019,02,18,09,09,0.80
2019,02,18,09,10,0.80
2019,02,18,09,11,0.80
2019,02,18,09,12,0.90
2019,02,18,09,13,0.90
2019,02,18,09,14,0.90
2019,02,18,09,15,0.90
2019,02,18,09,16,0.90
2019,02,18,09,17,0.90
2019,02,18,09,18,1.00
2019,02,18,09,19,1.00
2019,02,18,09,20,1.00
2019,02,18,09,21,1.10
2019,02,18,09,22,1.10
2019,02,18,09,23,1.10
2019,02,18,09,24,1.10
2019,02,18,09,25,1.10
2019,02,18,09,26,1.20
2019,02,18,09,27,1.20
2019,02,18,09,28,1.20
2019,02,18,09,29,1.20
2019,02,18,09,30,1.30
2019,02,18,09,31,1.30
2019,02,18,09,32,1.30
2019,02,18,09,33,1.30
2019,02,18,09,34,1.30
2019,02,18,09,35,1.40
2019,02,18,09,36,1.40
2019,02,18,09,37,1.40
2019,02,18,09,38,1.40
2019,02,18,09,39,1.40
2019,02,18,09,40,1.40
2019,02,18,09,41,1.40
2019,02,18,09,42,1.50
2019,02,18,09,43,1.50
2019,02,18,09,44,1.50
2019,02,18,09,45,1.50
2019,02,18,09,46,1.50
2019,02,18,09,47,1.60
2019,02,18,09,48,1.60
2019,02,18,09,49,1.60
2019,02,18,09,50,1.60
2019,02,18,09,51,1.60
2019,02,18,09,52,1.60
2019,02,18,09,53,1.60
2019,02,18,09,54,1.60
2019,02,18,09,55,1.60
2019,02,18,09,56,1.60
2019,02,18,09,57,1.70
2019,02,18,09,58,1.70
2019,02,18,09,59,1.70
2019,02,18,10,00,1.80
2019,02,18,10,01,1.80
2019,02,18,10,02,1.80
2019,02,18,10,03,1.80
2019,02,18,10,04,1.80
2019,02,18,10,05,1.90
2019,02,18,10,06,1.90
2019,02,18,10,07,1.90
2019,02,18,10,08,1.90
2019,02,18,10,09,1.90
2019,02,18,10,10,2.00
2019,02,18,10,11,2.00
2019,02,18,10,12,2.00
2019,02,18,10,13,2.00
2019,02,18,10,14,2.00
2019,02,18,10,15,2.10
2019,02,18,10,16,2.10
2019,02,18,10,17,2.10
2019,02,18,10,18,2.10
2019,02,18,10,19,2.20
2019,02,18,10,20,2.20
2019,02,18,10,21,2.20
2019,02,18,10,22,2.20
2019,02,18,10,23,2.20
2019,02,18,10,24,2.30
2019,02,18,10,25,2.30
2019,02,18,10,26,2.30
2019,02,18,10,27,2.30
2019,02,18,10,28,2.30
2019,02,18,10,29,2.30
2019,02,18,10,30,2.40
2019,02,18,10,31,2.40
2019,02,18,10,32,2.40
2019,02,18,10,33,2.40
2019,02,18,10,34,2.40
2019,02,18,10,35,2.40
2019,02,18,10,36,2.40
2019,02,18,10,37,2.40
2019,02,18,10,38,2.40
2019,02,18,10,39,2.40
2019,02,18,10,40,2.40
2019,02,18,10,41,2.50
2019,02,18,10,42,2.50
2019,02,18,10,43,2.50
2019,02,18,10,44,2.50
2019,02,18,10,45,2.50
2019,02,18,10,46,2.60
2019,02,18,10,47,2.60
2019,02,18,10,48,2.60
2019,02,18,10,49,2.60
2019,02,18,10,50,2.60
2019,02,18,10,51,2.60
2019,02,18,10,52,2.60
2019,02,18,10,53,2.70
2019,02,18,10,54,2.70
2019,02,18,10,55,2.70
2019,02,18,10,56,2.70
2019,02,18,10,57,2.70
2019,02,18,10,58,2.70
2019,02,18,10,59,2.70
2019,02,18,11,00,2.70
2019,02,18,11,01,2.70
2019,02,18,11,02,2.70
2019,02,18,11,03,2.70
2019,02,18,11,04,2.70
2019,02,18,11,05,2.70
2019,02,18,11,06,2.70
2019,02,18,11,07,2.70
2019,02,18,11,08,2.70
2019,02,18,11,09,2.70
2019,02,18,11,10,2.70
2019,02,18,11,11,2.70
2019,02,18,11,12,2.70
2019,02,18,11,13,2.70
2019,02,18,11,14,2.70
2019,02,18,11,15,2.80
2019,02,18,11,16,2.80
2019,02,18,11,17,2.80
2019,02,18,11,18,2.80
2019,02,18,11,19,2.80
2019,02,18,11,20,2.80
2019,02,18,11,21,2.80
2019,02,18,11,22,2.80
2019,02,18,11,23,2.80
2019,02,18,11,24,2.90
2019,02,18,11,25,2.90
2019,02,18,11,26,2.90
2019,02,18,11,27,2.90
2019,02,18,11,28,2.90
2019,02,18,11,29,3.00
2019,02,18,11,30,3.00
2019,02,18,11,31,3.10
2019,02,18,11,32,3.10
2019,02,18,11,33,3.10
2019,02,18,11,34,3.10
2019,02,18,11,35,3.20
2019,02,18,11,36,3.20
2019,02,18,11,37,3.20
2019,02,18,11,38,3.20
2019,02,18,11,39,3.20
2019,02,18,11,40,3.20
2019,02,18,11,41,3.30
2019,02,18,11,42,3.30
2019,02,18,11,43,3.30
2019,02,18,11,44,3.30
2019,02,18,11,45,3.30
2019,02,18,11,46,3.30
2019,02,18,11,47,3.30
2019,02,18,11,48,3.40
2019,02,18,11,49,3.40
2019,02,18,11,50,3.40
2019,02,18,11,51,3.40
2019,02,18,11,52,3.40
2019,02,18,11,53,3.40
2019,02,18,11,54,3.50
2019,02,18,11,55,3.50
2019,02,18,11,56,3.50
2019,02,18,11,57,3.50
2019,02,18,11,58,3.60
2019,02,18,11,59,3.60
2019,02,18,12,00,3.60
2019,02,18,12,01,3.60
2019,02,18,12,02,3.70
2019,02,18,12,03,3.70
2019,02,18,12,04,3.70
2019,02,18,12,05,3.70
2019,02,18,12,06,3.70
2019,02,18,12,07,3.70
2019,02,18,12,08,3.70
2019,02,18,12,09,3.70
2019,02,18,12,10,3.70
2019,02,18,12,11,3.70
2019,02,18,12,12,3.70
2019,02,18,12,13,3.80
2019,02,18,12,14,3.80
2019,02,18,12,15,3.80
2019,02,18,12,16,3.80
2019,02,18,12,17,3.80
2019,02,18,12,18,3.80
2019,02,18,12,19,3.80
2019,02,18,12,20,3.80
2019,02,18,12,21,3.80
2019,02,18,12,22,3.80
2019,02,18,12,23,3.80
2019,02,18,12,24,3.80
2019,02,18,12,25,3.80
2019,02,18,12,26,3.80
2019,02,18,12,27,3.80
2019,02,18,12,28,3.80
2019,02,18,12,29,3.80
2019,02,18,12,30,3.80
2019,02,18,12,31,3.80
2019,02,18,12,32,3.80
2019,02,18,12,33,3.80
2019,02,18,12,34,3.80
2019,02,18,12,35,3.80
2019,02,18,12,36,3.80
2019,02,18,12,37,3.80
2019,02,18,12,38,3.80
2019,02,18,12,39,3.80
2019,02,18,12,40,3.80
2019,02,18,12,41,3.70
2019,02,18,12,42,3.70
2019,02,18,12,43,3.70
2019,02,18,12,44,3.70
2019,02,18,12,45,3.60
2019,02,18,12,46,3.60
2019,02,18,12,47,3.60
2019,02,18,12,48,3.60
2019,02,18,12,49,3.60
2019,02,18,12,50,3.50
2019,02,18,12,51,3.50
2019,02,18,12,52,3.50
2019,02,18,12,53,3.50
2019,02,18,12,54,3.50
2019,02,18,12,55,3.50
2019,02,18,12,56,3.50
2019,02,18,12,57,3.50
2019,02,18,12,58,3.60
2019,02,18,12,59,3.60
2019,02,18,13,00,3.60
2019,02,18,13,01,3.60
2019,02,18,13,02,3.60
2019,02,18,13,03,3.60
2019,02,18,13,04,3.60
2019,02,18,13,05,3.60
2019,02,18,13,06,3.60
2019,02,18,13,07,3.50
2019,02,18,13,08,3.60
2019,02,18,13,09,3.60
2019,02,18,13,10,3.60
2019,02,18,13,11,3.60
2019,02,18,13,12,3.60
2019,02,18,13,13,3.60
2019,02,18,13,14,3.60
2019,02,18,13,15,3.60
2019,02,18,13,16,3.60
2019,02,18,13,17,3.70
2019,02,18,13,18,3.70
2019,02,18,13,19,3.70
2019,02,18,13,20,3.70
2019,02,18,13,21,3.70
2019,02,18,13,22,3.70
2019,02,18,13,23,3.70
2019,02,18,13,24,3.70
2019,02,18,13,25,3.80
2019,02,18,13,26,3.80
2019,02,18,13,27,3.70
2019,02,18,13,28,3.70
2019,02,18,13,29,3.70
2019,02,18,13,30,3.70
2019,02,18,13,31,3.70
2019,02,18,13,32,3.70
2019,02,18,13,33,3.70
2019,02,18,13,34,3.60
2019,02,18,13,35,3.60
2019,02,18,13,36,3.60
2019,02,18,13,37,3.60
2019,02,18,13,38,3.60
2019,02,18,13,39,3.50
2019,02,18,13,40,3.50
2019,02,18,13,41,3.50
2019,02,18,13,42,3.50
2019,02,18,13,43,3.50
2019,02,18,13,44,3.60
2019,02,18,13,45,3.60
2019,02,18,13,46,3.60
2019,02,18,13,47,3.60
2019,02,18,13,48,3.60
2019,02,18,13,49,3.60
2019,02,18,13,50,3.60
2019,02,18,13,51,3.60
2019,02,18,13,52,3.60
2019,02,18,13,53,3.70
2019,02,18,13,54,3.70
2019,02,18,13,55,3.70
2019,02,18,13,56,3.70
2019,02,18,13,57,3.70
2019,02,18,13,58,3.70
2019,02,18,13,59,3.70
2019,02,18,14,00,3.70
2019,02,18,14,01,3.70
2019,02,18,14,02,3.70
2019,02,18,14,03,3.70
2019,02,18,14,04,3.70
2019,02,18,14,05,3.70
2019,02,18,14,06,3.70
2019,02,18,14,07,3.70
2019,02,18,14,08,3.70
2019,02,18,14,09,3.70
2019,02,18,14,10,3.70
2019,02,18,14,11,3.70
2019,02,18,14,12,3.70
2019,02,18,14,13,3.70
2019,02,18,14,14,3.60
2019,02,18,14,15,3.60
2019,02,18,14,16,3.60
2019,02,18,14,17,3.60
2019,02,18,14,18,3.60
2019,02,18,14,19,3.60
2019,02,18,14,20,3.60
2019,02,18,14,21,3.60
2019,02,18,14,22,3.60
2019,02,18,14,23,3.60
2019,02,18,14,24,3.50
2019,02,18,14,25,3.50
2019,02,18,14,26,3.50
2019,02,18,14,27,3.50
2019,02,18,14,28,3.50
2019,02,18,14,29,3.40
2019,02,18,14,30,3.40
2019,02,18,14,31,3.40
2019,02,18,14,32,3.40
2019,02,18,14,33,3.40
2019,02,18,14,34,3.40
2019,02,18,14,35,3.40
2019,02,18,14,36,3.40
2019,02,18,14,37,3.40
2019,02,18,14,38,3.40
2019,02,18,14,39,3.40
2019,02,18,14,40,3.40
2019,02,18,14,41,3.40
2019,02,18,14,42,3.40
2019,02,18,14,43,3.40
2019,02,18,14,44,3.40
2019,02,18,14,45,3.40
2019,02,18,14,46,3.40
2019,02,18,14,47,3.50
2019,02,18,14,48,3.50
2019,02,18,14,49,3.50
2019,02,18,14,50,3.50
2019,02,18,14,51,3.50
2019,02,18,14,52,3.50
2019,02,18,14,53,3.50
2019,02,18,14,54,3.50
2019,02,18,14,55,3.50
2019,02,18,14,56,3.50
2019,02,18,14,57,3.50
2019,02,18,14,58,3.40
2019,02,18,14,59,3.40
2019,02,18,15,00,3.40
2019,02,18,15,01,3.40
2019,02,18,15,02,3.40
2019,02,18,15,03,3.40
2019,02,18,15,04,3.40
2019,02,18,15,05,3.30
2019,02,18,15,06,3.30
2019,02,18,15,07,3.30
2019,02,18,15,08,3.30
2019,02,18,15,09,3.30
2019,02,18,15,10,3.30
2019,02,18,15,11,3.30
2019,02,18,15,12,3.30
2019,02,18,15,13,3.30
2019,02,18,15,14,3.30
2019,02,18,15,15,3.30
2019,02,18,15,16,3.30
2019,02,18,15,17,3.30
2019,02,18,15,18,3.30
2019,02,18,15,19,3.30
2019,02,18,15,20,3.30
2019,02,18,15,21,3.30
2019,02,18,15,22,3.30
2019,02,18,15,23,3.30
2019,02,18,15,24,3.30
2019,02,18,15,25,3.30
2019,02,18,15,26,3.30
2019,02,18,15,27,3.30
2019,02,18,15,28,3.30
2019,02,18,15,29,3.30
2019,02,18,15,30,3.30
2019,02,18,15,31,3.30
2019,02,18,15,32,3.30
2019,02,18,15,33,3.30
2019,02,18,15,34,3.30
2019,02,18,15,35,3.30
2019,02,18,15,36,3.30
2019,02,18,15,37,3.30
2019,02,18,15,38,3.30
2019,02,18,15,39,3.30
2019,02,18,15,40,3.30
2019,02,18,15,41,3.30
2019,02,18,15,42,3.30
2019,02,18,15,43,3.30
2019,02,18,15,44,3.30
2019,02,18,15,45,3.30
2019,02,18,15,46,3.20
2019,02,18,15,47,3.20
2019,02,18,15,48,3.20
2019,02,18,15,49,3.20
2019,02,18,15,50,3.20
2019,02,18,15,51,3.20
2019,02,18,15,52,3.20
2019,02,18,15,53,3.20
2019,02,18,15,54,3.20
2019,02,18,15,55,3.20
2019,02,18,15,56,3.10
2019,02,18,15,57,3.10
2019,02,18,15,58,3.10
2019,02,18,15,59,3.10
2019,02,18,16,00,3.10
2019,02,18,16,01,3.00
2019,02,18,16,02,3.00
2019,02,18,16,03,3.00
2019,02,18,16,04,2.90
2019,02,18,16,05,2.90
2019,02,18,16,06,2.90
2019,02,18,16,07,2.90
2019,02,18,16,08,2.80
2019,02,18,16,09,2.80
2019,02,18,16,10,2.80
2019,02,18,16,11,2.80
2019,02,18,16,12,2.80
2019,02,18,16,13,2.80
2019,02,18,16,14,2.70
2019,02,18,16,15,2.70
2019,02,18,16,16,2.70
2019,02,18,16,17,2.70
2019,02,18,16,18,2.70
2019,02,18,16,19,2.70
2019,02,18,16,20,2.70
2019,02,18,16,21,2.70
2019,02,18,16,22,2.70
2019,02,18,16,23,2.70
2019,02,18,16,24,2.70
2019,02,18,16,25,2.70
2019,02,18,16,26,2.70
2019,02,18,16,27,2.70
2019,02,18,16,28,2.70
2019,02,18,16,29,2.60
2019,02,18,16,30,2.60
2019,02,18,16,31,2.60
2019,02,18,16,32,2.60
2019,02,18,16,33,2.60
2019,02,18,16,34,2.60
2019,02,18,16,35,2.60
2019,02,18,16,36,2.60
2019,02,18,16,37,2.60
2019,02,18,16,38,2.60
2019,02,18,16,39,2.60
2019,02,18,16,40,2.60
2019,02,18,16,41,2.50
2019,02,18,16,42,2.50
2019,02,18,16,43,2.50
2019,02,18,16,44,2.50
2019,02,18,16,45,2.50
2019,02,18,16,46,2.50
2019,02,18,16,47,2.40
2019,02,18,16,48,2.40
2019,02,18,16,49,2.40
2019,02,18,16,50,2.40
2019,02,18,16,51,2.40
2019,02,18,16,52,2.30
2019,02,18,16,53,2.30
2019,02,18,16,54,2.30
2019,02,18,16,55,2.30
2019,02,18,16,56,2.30
2019,02,18,16,57,2.20
2019,02,18,16,58,2.20
2019,02,18,16,59,2.20
2019,02,18,17,00,2.20
2019,02,18,17,01,2.20
2019,02,18,17,02,2.10
2019,02,18,17,03,2.10
2019,02,18,17,04,2.10
2019,02,18,17,05,2.10
2019,02,18,17,06,2.10
2019,02,18,17,07,2.00
2019,02,18,17,08,2.00
2019,02,18,17,09,2.00
2019,02,18,17,10,1.90
2019,02,18,17,11,1.90
2019,02,18,17,12,1.90
2019,02,18,17,13,1.90
2019,02,18,17,14,1.90
2019,02,18,17,15,1.80
2019,02,18,17,16,1.80
2019,02,18,17,17,1.80
2019,02,18,17,18,1.80
2019,02,18,17,19,1.80
2019,02,18,17,20,1.80
2019,02,18,17,21,1.70
2019,02,18,17,22,1.70
2019,02,18,17,23,1.70
2019,02,18,17,24,1.70
2019,02,18,17,25,1.70
2019,02,18,17,26,1.60
2019,02,18,17,27,1.60
2019,02,18,17,28,1.60
2019,02,18,17,29,1.60
2019,02,18,17,30,1.60
2019,02,18,17,31,1.60
2019,02,18,17,32,1.60
2019,02,18,17,33,1.50
2019,02,18,17,34,1.50
2019,02,18,17,35,1.50
2019,02,18,17,36,1.50
2019,02,18,17,37,1.50
2019,02,18,17,38,1.40
2019,02,18,17,39,1.40
2019,02,18,17,40,1.40
2019,02,18,17,41,1.40
2019,02,18,17,42,1.40
2019,02,18,17,43,1.40
2019,02,18,17,44,1.40
2019,02,18,17,45,1.40
2019,02,18,17,46,1.40
2019,02,18,17,47,1.30
2019,02,18,17,48,1.30
2019,02,18,17,49,1.30